Location: Oregon Trail
(41.1872°N, 102.0741°W)
Time: 20:15:46
(UTC+00:00)

ADEOS Rocket - Pass Details

Date: 19 November 2019
Orbit: 858 x 1307 km, 98.7° (Epoch: 07 December)

Event Time Altitude Azimuth Distance (km) Brightness Sun altitude
Rises 13:03:39 0° 155° (SSE) 4,284 7.1 -7.3°
Reaches altitude 10° 13:06:23 10° 153° (SSE) 3,314 6.5 -6.8°
Maximum altitude 13:14:03 68° 72° (ENE) 1,358 4.0 -5.5°
Drops below altitude 10° 13:21:22 10° 352° (N) 3,161 5.4 -4.2°
Sets 13:23:55 0° 350° (N) 4,076 5.9 -3.7°
